This is the latest recevied weather packets stored in our database for station/object NN5DX-12. If no packets are shown the sender has not sent any weather packets the latest 10 day(s).
| Time | Temp. | Humidity | Pressure | Rain* | Wind** | Luminosity | Snow |
|---|---|---|---|---|---|---|---|
| 1777786817 | 3.33° C | 46% | 1025.3 hPa | 0 mm | - | - | - |
| 1777786517 | 3.89° C | 44% | 1025.9 hPa | 0 mm | - | - | - |
| 1777786217 | 3.89° C | 42% | 1025.9 hPa | 0 mm | - | - | - |
| 1777785917 | 3.89° C | 41% | 1025.3 hPa | 0 mm | - | - | - |
| 1777785617 | 3.89° C | 40% | 1024.7 hPa | 0 mm | - | - | - |
| 1777785317 | 3.89° C | 41% | 1024.7 hPa | 0 mm | - | - | - |
| 1777785017 | 3.33° C | 43% | 1024.8 hPa | 0 mm | - | - | - |
| 1777784718 | 3.89° C | 43% | 1024.8 hPa | 0 mm | - | - | - |
| 1777784417 | 3.33° C | 41% | 1024.8 hPa | 0 mm | - | - | - |
| 1777784117 | 3.33° C | 44% | 1024.9 hPa | 0 mm | - | - | - |
| 1777783817 | 3.89° C | 40% | 1024.8 hPa | 0 mm | - | - | - |
| 1777783518 | 3.89° C | 41% | 1024.8 hPa | 0 mm | - | - | - |
| 1777783217 | 3.89° C | 40% | 1024.7 hPa | 0 mm | - | - | - |
| 1777782917 | 3.89° C | 40% | 1024.7 hPa | 0 mm | - | - | - |
| 1777782618 | 3.89° C | 39% | 1024.7 hPa | 0 mm | - | - | - |
| 1777782317 | 3.89° C | 40% | 1024.1 hPa | 0 mm | - | - | - |
| 1777782017 | 3.33° C | 42% | 1024.2 hPa | 0 mm | - | - | - |
| 1777781717 | 3.89° C | 41% | 1024.8 hPa | 0 mm | - | - | - |
| 1777781417 | 3.89° C | 41% | 1024.9 hPa | 0 mm | - | - | - |
| 1777781117 | 3.89° C | 41% | 1024.9 hPa | 0 mm | - | - | - |
| 1777780817 | 3.89° C | 39% | 1025 hPa | 0 mm | - | - | - |
| 1777780518 | 3.89° C | 40% | 1024.4 hPa | 0 mm | - | - | - |
| 1777780217 | 3.89° C | 41% | 1024.4 hPa | 0 mm | - | - | - |
| 1777779918 | 3.89° C | 40% | 1024.4 hPa | 0 mm | - | - | - |
| 1777779617 | 3.89° C | 39% | 1024.3 hPa | 0 mm | - | - | - |
* Rain latest hour (hover to see other rain measurements)
** Current wind speed in m/s (hover to see current wind gust speed)